TimeCST,TemperatureF,Dew PointF,Humidity,Sea Level PressureIn,VisibilityMPH,Wind Direction,Wind SpeedMPH,Gust SpeedMPH,PrecipitationIn,Events,Conditions,WindDirDegrees,DateUTC
12:53 AM,50.0,46.9,89,30.10,10.0,ESE,5.8,-,N/A,,Scattered Clouds,110,2014-02-16 06:53:00
1:53 AM,50.0,46.9,89,30.11,10.0,East,4.6,-,N/A,,Clear,90,2014-02-16 07:53:00
2:53 AM,50.0,48.0,93,30.09,9.0,ESE,4.6,-,N/A,,Clear,120,2014-02-16 08:53:00
3:53 AM,52.0,50.0,93,30.09,9.0,East,4.6,-,N/A,,Mostly Cloudy,90,2014-02-16 09:53:00
4:53 AM,53.1,51.1,93,30.08,10.0,ESE,6.9,-,N/A,,Mostly Cloudy,120,2014-02-16 10:53:00
5:53 AM,52.0,51.1,97,30.08,8.0,ESE,5.8,-,N/A,,Mostly Cloudy,110,2014-02-16 11:53:00
6:53 AM,54.0,52.0,93,30.10,6.0,ENE,4.6,-,N/A,,Overcast,60,2014-02-16 12:53:00
7:53 AM,55.0,53.1,93,30.11,5.0,East,3.5,-,N/A,,Scattered Clouds,100,2014-02-16 13:53:00
8:53 AM,63.0,57.9,84,30.13,10.0,SE,4.6,-,N/A,,Clear,130,2014-02-16 14:53:00
9:53 AM,69.1,61.0,75,30.12,10.0,SSE,10.4,-,N/A,,Partly Cloudy,160,2014-02-16 15:53:00
10:53 AM,73.9,62.1,66,30.12,10.0,South,13.8,17.3,N/A,,Scattered Clouds,170,2014-02-16 16:53:00
11:25 AM,73.0,61.0,66,30.11,10.0,South,11.5,-,N/A,,Mostly Cloudy,180,2014-02-16 17:25:00
11:42 AM,73.0,60.1,64,30.11,10.0,South,10.4,-,N/A,,Overcast,180,2014-02-16 17:42:00
11:53 AM,73.9,61.0,64,30.11,10.0,SSE,10.4,-,N/A,,Mostly Cloudy,160,2014-02-16 17:53:00
12:53 PM,75.0,57.9,55,30.07,10.0,SSE,11.5,-,N/A,,Mostly Cloudy,160,2014-02-16 18:53:00
1:53 PM,73.0,59.0,61,30.06,10.0,South,13.8,-,N/A,,Mostly Cloudy,190,2014-02-16 19:53:00
2:53 PM,73.0,57.9,59,30.05,10.0,South,13.8,-,N/A,,Mostly Cloudy,170,2014-02-16 20:53:00
3:53 PM,71.1,61.0,70,30.05,10.0,SSE,12.7,-,N/A,,Overcast,160,2014-02-16 21:53:00
4:53 PM,69.1,62.1,78,30.06,10.0,SSE,9.2,-,N/A,,Overcast,160,2014-02-16 22:53:00
5:53 PM,66.9,62.1,84,30.06,10.0,South,8.1,-,N/A,,Overcast,170,2014-02-16 23:53:00
6:53 PM,64.9,61.0,87,30.06,10.0,South,5.8,-,N/A,,Overcast,170,2014-02-17 00:53:00
7:53 PM,64.0,61.0,90,30.07,10.0,SSE,8.1,-,N/A,,Overcast,160,2014-02-17 01:53:00
8:53 PM,63.0,60.1,90,30.06,10.0,South,9.2,-,N/A,,Mostly Cloudy,170,2014-02-17 02:53:00
9:53 PM,63.0,60.1,90,30.06,10.0,South,12.7,-,N/A,,Overcast,170,2014-02-17 03:53:00
10:53 PM,63.0,60.1,90,30.05,10.0,South,12.7,-,N/A,,Mostly Cloudy,170,2014-02-17 04:53:00
11:53 PM,63.0,60.1,90,30.05,10.0,South,13.8,20.7,N/A,,Overcast,170,2014-02-17 05:53:00